Medford, WI

8:12 PM CDT on September 16, 2019 (GMT -0500)
Taylor County

Weather History for KMDZ - August, 2019

Change the Weather History Date:

Sunday, August 25, 2019

  Actual Average Record
Temperature  
Mean Temperature 57 °F -  
Max Temperature 68 °F 74 °F 94 °F (1948)
Min Temperature 46 °F 54 °F 35 °F (1958)
Degree Days  
Heating Degree Days 8    
Growing Degree Days 7 (Base 50)    
Moisture  
Dew Point 53 °F    
Average Humidity 80    
Maximum Humidity 99    
Minimum Humidity 61    
Precipitation  
Precipitation 0.00 in - - ()
Sea Level Pressure  
Sea Level Pressure 30.11 in    
Wind  
Wind Speed 5 mph ()    
Max Wind Speed 13 mph    
Max Gust Speed 18 mph    
Visibility 9.6 miles    
Events      
Averages and records for this station are not official NWS values.
T = Trace of Precipitation, MM = Missing Value Source: Averaged Metar Reports

Daily Weather History Graph

Daily Weather History Graph

Search for Another Location

Airport or City:

Astronomy

Aug. 25, 2019 Rise Set
Actual Time 6:14 AM CDT 7:51 PM CDT
Civil Twilight 5:43 AM CDT 8:22 PM CDT
Nautical Twilight 5:05 AM CDT 8:59 PM CDT
Astronomical Twilight 4:25 AM CDT 9:40 PM CDT
Moon 12:41 AM CDT (8/25) 4:21 PM CDT (8/25)
Length of Visible Light 14h 38m
Length of Day
13h 36m
Waning Crescent, 29% of the Moon is Illuminated
Aug 25
Waning Crescent
Aug 30
New
Sep 5
First Quarter
Sep 13
Full
Sep 21
Last Quarter

Hourly Weather History & Observations

Time (CDT) Temp. Windchill Dew Point Humidity Pressure Visibility Wind Dir Wind Speed Gust Speed Precip Events Conditions
12:15 AM 55.8 °F - 51.8 °F 87% 30.20 in 10.0 mi SE 3.5 mph - N/A   Clear
12:35 AM 54.9 °F - 51.3 °F 88% 30.20 in 10.0 mi SE 3.5 mph - N/A   Clear
12:55 AM 54.3 °F - 50.9 °F 88% 30.20 in 10.0 mi SE 3.5 mph - N/A   Clear
1:15 AM 53.8 °F - 50.5 °F 89% 30.20 in 10.0 mi SE 4.6 mph - N/A   Clear
1:35 AM 53.1 °F - 50.0 °F 89% 30.20 in 10.0 mi SE 3.5 mph - N/A   Clear
1:55 AM 52.5 °F - 49.8 °F 91% 30.20 in 10.0 mi SE 3.5 mph - N/A   Clear
2:15 AM 52.2 °F - 49.5 °F 91% 30.20 in 10.0 mi Calm Calm - N/A   Clear
2:35 AM 51.4 °F - 49.3 °F 92% 30.21 in 10.0 mi Calm Calm - N/A   Clear
2:55 AM 51.3 °F - 49.1 °F 92% 30.21 in 10.0 mi SE 3.5 mph - N/A   Clear
3:15 AM 50.0 °F - 48.4 °F 94% 30.20 in 10.0 mi ESE 3.5 mph - N/A   Clear
3:35 AM 48.6 °F - 47.7 °F 97% 30.20 in 10.0 mi ESE 3.5 mph - N/A   Clear
3:55 AM 46.8 °F - 46.0 °F 97% 30.20 in 7.0 mi Calm Calm - N/A   Clear
4:15 AM 46.4 °F 45.2 °F 45.9 °F 98% 30.19 in 7.0 mi East 3.5 mph - N/A   Clear
4:35 AM 47.3 °F - 47.1 °F 99% 30.20 in 3.0 mi Calm Calm - N/A   Clear
4:55 AM 48.2 °F - 47.8 °F 99% 30.19 in 10.0 mi East 3.5 mph - N/A   Mostly Cloudy
5:15 AM 46.2 °F - 45.9 °F 99% 30.19 in 10.0 mi Calm Calm - N/A   Mostly Cloudy
5:35 AM 47.8 °F - 47.7 °F 99% 30.19 in 7.0 mi East 3.5 mph - N/A   Mostly Cloudy
5:55 AM 47.3 °F - 46.9 °F 99% 30.19 in 7.0 mi Calm Calm - N/A   Mostly Cloudy
6:15 AM 46.8 °F - 46.4 °F 99% 30.18 in 3.0 mi Calm Calm - N/A   Scattered Clouds
6:35 AM 47.1 °F - 46.9 °F 99% 30.17 in 7.0 mi Calm Calm - N/A   Scattered Clouds
6:55 AM 50.0 °F - 49.8 °F 99% 30.17 in 10.0 mi Calm Calm - N/A   Scattered Clouds
7:15 AM 52.7 °F - 52.3 °F 99% 30.17 in 10.0 mi ESE 5.8 mph - N/A   Scattered Clouds
7:35 AM 53.6 °F - 52.5 °F 96% 30.17 in 10.0 mi SE 4.6 mph - N/A   Scattered Clouds
7:55 AM 54.1 °F - 52.9 °F 95% 30.16 in 10.0 mi ESE 4.6 mph - N/A   Mostly Cloudy
8:15 AM 55.0 °F - 53.2 °F 94% 30.16 in 10.0 mi SE 4.6 mph - N/A   Scattered Clouds
8:35 AM 56.1 °F - 54.1 °F 93% 30.15 in 10.0 mi SE 5.8 mph - N/A   Scattered Clouds
8:55 AM 57.6 °F - 54.9 °F 91% 30.15 in 10.0 mi SE 3.5 mph - N/A   Mostly Cloudy
9:15 AM 59.2 °F - 55.8 °F 88% 30.15 in 10.0 mi SE 4.6 mph - N/A   Overcast
9:35 AM 61.0 °F - 55.6 °F 82% 30.15 in 10.0 mi SE 6.9 mph - N/A   Overcast
9:55 AM 63.5 °F - 56.1 °F 77% 30.15 in 10.0 mi SE 8.1 mph - N/A   Mostly Cloudy
10:35 AM 64.8 °F - 55.2 °F 71% 30.14 in 10.0 mi SSE 8.1 mph - N/A   Scattered Clouds
10:55 AM 65.7 °F - 54.1 °F 66% 30.15 in 10.0 mi SSE 11.5 mph 17.3 mph N/A   Mostly Cloudy
11:15 AM 65.3 °F - 53.6 °F 66% 30.14 in 10.0 mi SSE 11.5 mph 16.1 mph N/A   Mostly Cloudy
11:35 AM 64.9 °F - 53.8 °F 67% 30.14 in 10.0 mi SSE 8.1 mph 16.1 mph N/A   Mostly Cloudy
11:55 AM 65.1 °F - 54.0 °F 67% 30.13 in 10.0 mi SSE 10.4 mph - N/A   Overcast
12:15 PM 66.2 °F - 53.2 °F 63% 30.13 in 10.0 mi SSE 12.7 mph 17.3 mph N/A   Mostly Cloudy
12:35 PM 67.8 °F - 54.9 °F 63% 30.12 in 10.0 mi SE 12.7 mph 16.1 mph N/A   Overcast
12:55 PM 65.3 °F - 52.9 °F 64% 30.11 in 10.0 mi SE 10.4 mph 17.3 mph N/A   Overcast
1:15 PM 66.4 °F - 54.3 °F 65% 30.11 in 10.0 mi SSE 11.5 mph 18.4 mph N/A   Overcast
1:35 PM 65.7 °F - 52.7 °F 63% 30.10 in 10.0 mi SSE 8.1 mph - N/A   Overcast
1:55 PM 67.8 °F - 53.8 °F 61% 30.10 in 10.0 mi SSE 9.2 mph - N/A   Mostly Cloudy
2:15 PM 66.0 °F - 53.6 °F 64% 30.09 in 10.0 mi SSE 12.7 mph - N/A   Mostly Cloudy
2:35 PM 66.6 °F - 53.2 °F 62% 30.08 in 10.0 mi SSE 11.5 mph 16.1 mph N/A   Mostly Cloudy
2:55 PM 67.1 °F - 54.0 °F 63% 30.08 in 10.0 mi SSE 11.5 mph - N/A   Scattered Clouds
3:15 PM 68.0 °F - 54.5 °F 62% 30.07 in 10.0 mi SSE 8.1 mph - N/A   Mostly Cloudy
3:35 PM 67.1 °F - 53.8 °F 62% 30.06 in 10.0 mi SE 10.4 mph - N/A   Overcast
3:55 PM 66.7 °F - 52.9 °F 61% 30.06 in 10.0 mi SSE 11.5 mph 16.1 mph N/A   Mostly Cloudy
4:15 PM 66.6 °F - 53.4 °F 63% 30.05 in 10.0 mi SSE 10.4 mph - N/A   Scattered Clouds
4:35 PM 66.2 °F - 54.1 °F 65% 30.05 in 10.0 mi SSE 8.1 mph - N/A   Mostly Cloudy
4:55 PM 65.3 °F - 53.4 °F 65% 30.05 in 10.0 mi SSE 6.9 mph - N/A   Mostly Cloudy
5:15 PM 65.5 °F - 53.6 °F 65% 30.03 in 10.0 mi SSE 6.9 mph - N/A   Scattered Clouds
5:35 PM 65.5 °F - 54.7 °F 68% 30.03 in 10.0 mi SSE 5.8 mph - N/A   Clear
5:55 PM 66.6 °F - 55.0 °F 66% 30.03 in 10.0 mi SSE 8.1 mph - N/A   Clear
6:15 PM 65.7 °F - 53.8 °F 65% 30.03 in 10.0 mi SSE 8.1 mph - N/A   Clear
6:35 PM 64.2 °F - 54.0 °F 69% 30.03 in 10.0 mi SSE 5.8 mph - N/A   Clear
6:55 PM 63.9 °F - 54.5 °F 72% 30.02 in 10.0 mi SSE 3.5 mph - N/A   Clear
7:15 PM 63.0 °F - 54.9 °F 75% 30.02 in 10.0 mi ESE 3.5 mph - N/A   Scattered Clouds
7:35 PM 62.2 °F - 54.9 °F 77% 30.01 in 10.0 mi ESE 3.5 mph - N/A   Mostly Cloudy
7:55 PM 61.7 °F - 55.4 °F 80% 30.01 in 10.0 mi ESE 3.5 mph - N/A   Overcast
8:15 PM 60.8 °F - 55.4 °F 82% 30.01 in 10.0 mi ESE 3.5 mph - N/A   Mostly Cloudy
8:35 PM 60.1 °F - 55.4 °F 85% 30.01 in 10.0 mi East 3.5 mph - N/A   Scattered Clouds
8:55 PM 60.4 °F - 55.6 °F 84% 30.01 in 10.0 mi ESE 3.5 mph - N/A   Mostly Cloudy
9:15 PM 60.8 °F - 55.4 °F 82% 30.01 in 10.0 mi ESE 3.5 mph - N/A   Overcast
9:35 PM 60.8 °F - 55.4 °F 82% 30.01 in 10.0 mi ESE 5.8 mph - N/A   Overcast
9:55 PM 61.0 °F - 55.0 °F 81% 30.01 in 10.0 mi ESE 6.9 mph - N/A   Overcast
10:15 PM 61.2 °F - 55.0 °F 80% 30.01 in 10.0 mi SE 5.8 mph - N/A   Overcast
10:35 PM 61.2 °F - 55.0 °F 80% 30.01 in 10.0 mi SE 9.2 mph - N/A   Overcast
10:55 PM 60.8 °F - 54.7 °F 80% 30.00 in 10.0 mi SE 8.1 mph - N/A   Overcast
11:15 PM 60.8 °F - 54.1 °F 79% 30.00 in 10.0 mi SE 9.2 mph - N/A   Overcast
11:35 PM 60.3 °F - 53.6 °F 79% 30.00 in 10.0 mi SE 5.8 mph - N/A   Overcast
11:55 PM 59.9 °F - 53.4 °F 79% 29.99 in 10.0 mi SE 6.9 mph - N/A   Mostly Cloudy